Hoquiam, WA

2:49 PM PST on February 12, 2016 (GMT -0800)
Bowerman

Weather History for KHQM - March, 2014

Change the Weather History Date:

Saturday, March 8, 2014

  Actual Average Record
Temperature  
Mean Temperature 48 °F 45 °F  
Max Temperature 52 °F 52 °F 68 °F (1965)
Min Temperature 43 °F 39 °F 28 °F (2002)
Degree Days  
Heating Degree Days 17 20  
Month to date heating degree days 130 160  
Cooling Degree Days 0 0  
Month to date cooling degree days 0 0  
Year to date cooling degree days 0 0  
Moisture  
Dew Point 47 °F    
Average Humidity 95    
Maximum Humidity 100    
Minimum Humidity 89    
Precipitation  
Precipitation 1.63 in 0.22 in 2.06 in (1983)
Month to date precipitation 7.28 1.82  
Year to date precipitation 21.80 19.36  
Sea Level Pressure  
Sea Level Pressure 29.86 in    
Wind  
Wind Speed 15 mph (SE)    
Max Wind Speed 35 mph    
Max Gust Speed 44 mph    
Visibility 3 miles    
Events Fog , Rain    
T = Trace of Precipitation, MM = Missing Value Source: NWS Daily Summary

Daily Weather History Graph

Daily Weather History Graph

Search for Another Location

Airport or City:

Trip Planner

Search our weather history database for the weather conditions in past years. The results will help you decide how hot, cold, wet, or windy it might be!

Date:

Astronomy

Mar. 08, 2014 Rise Set
Actual Time 6:42 AM PST 6:11 PM PST
Civil Twilight 6:11 AM PST 6:42 PM PST
Nautical Twilight 5:36 AM PST 7:17 PM PST
Astronomical Twilight 5:00 AM PST 7:53 PM PST
Moon 11:04 AM PST (3/8) 1:38 AM PST (3/8)
Length of Visible Light 12h 30m
Length of Day
11h 29m
First Quarter, 53% of the Moon is Illuminated
Mar 8
First Quarter
Mar 16
Full
Mar 23
Last Quarter
Mar 30
New
Apr 7
First Quarter

Hourly Weather History & Observations

Time (PST) Temp. Windchill Dew Point Humidity Pressure Visibility Wind Dir Wind Speed Gust Speed Precip Events Conditions
12:53 AM 43.0 °F 37.2 °F 43.0 °F 100% 30.10 in 0.2 mi ENE 10.4 mph - N/A Fog Fog
1:05 AM 43.0 °F 37.2 °F 43.0 °F 100% 30.09 in 0.5 mi ENE 10.4 mph - N/A Fog Fog
1:13 AM 43.0 °F 37.7 °F 43.0 °F 100% 30.09 in 1.0 mi ENE 9.2 mph - N/A   Mist
1:24 AM 43.0 °F 37.7 °F 43.0 °F 100% 30.08 in 3.0 mi ENE 9.2 mph - N/A   Mostly Cloudy
1:34 AM 43.0 °F 37.2 °F 43.0 °F 100% 30.07 in 5.0 mi ENE 10.4 mph - N/A   Scattered Clouds
1:53 AM 44.1 °F 38.6 °F 43.0 °F 96% 30.07 in 7.0 mi ENE 10.4 mph - N/A   Clear
2:53 AM 43.0 °F 37.2 °F 43.0 °F 100% 30.05 in 8.0 mi ENE 10.4 mph - N/A   Clear
3:53 AM 43.0 °F 36.8 °F 43.0 °F 100% 30.02 in 8.0 mi ENE 11.5 mph - N/A   Clear
4:53 AM 43.0 °F 37.2 °F 43.0 °F 100% 30.01 in 8.0 mi East 10.4 mph - N/A   Mostly Cloudy
5:53 AM 44.1 °F 39.0 °F 43.0 °F 96% 30.01 in 8.0 mi East 9.2 mph - N/A   Overcast
6:53 AM 44.1 °F 38.6 °F 43.0 °F 96% 29.99 in 8.0 mi ENE 10.4 mph - N/A   Overcast
7:53 AM 44.1 °F 37.7 °F 43.0 °F 96% 29.96 in 3.0 mi ENE 12.7 mph - 0.03 in Rain Light Rain
8:53 AM 46.0 °F 40.6 °F 44.1 °F 93% 29.92 in 7.0 mi ENE 11.5 mph - 0.01 in   Overcast
9:53 AM 46.9 °F - 46.0 °F 97% 29.93 in 4.0 mi ENE 6.9 mph - 0.01 in Rain Light Rain
10:21 AM 48.0 °F - 46.0 °F 93% 29.91 in 2.5 mi ENE 9.2 mph 17.3 mph 0.04 in Rain Light Rain
10:40 AM 48.9 °F - 46.0 °F 90% 29.91 in 3.0 mi ENE 5.8 mph - 0.06 in Rain Light Rain
10:53 AM 48.9 °F - 46.0 °F 90% 29.91 in 2.5 mi NE 5.8 mph - 0.08 in Rain Light Rain
11:07 AM 48.9 °F - 46.9 °F 93% 29.90 in 2.0 mi ENE 6.9 mph - 0.03 in Rain Rain
11:20 AM 48.9 °F - 46.9 °F 93% 29.88 in 1.5 mi ENE 9.2 mph - 0.09 in Rain Rain
11:38 AM 48.9 °F - 46.9 °F 93% 29.87 in 2.0 mi ENE 9.2 mph - 0.14 in Rain Light Rain
11:53 AM 48.9 °F - 46.9 °F 93% 29.88 in 2.5 mi ENE 10.4 mph - 0.17 in Rain Light Rain
12:18 PM 48.0 °F - 46.9 °F 96% 29.85 in 1.8 mi ENE 10.4 mph - 0.05 in Rain Light Rain
12:25 PM 48.0 °F - 46.9 °F 96% 29.84 in 2.5 mi ENE 10.4 mph - 0.06 in Rain Light Rain
12:53 PM 48.9 °F - 48.0 °F 97% 29.84 in 2.0 mi ENE 9.2 mph - 0.13 in Rain Rain
1:01 PM 48.9 °F - 48.0 °F 97% 29.83 in 1.5 mi ENE 8.1 mph - 0.03 in Rain Rain
1:09 PM 48.9 °F - 48.0 °F 97% 29.83 in 1.2 mi East 9.2 mph - 0.07 in Rain Rain
1:16 PM 48.9 °F - 48.0 °F 97% 29.82 in 1.0 mi ENE 9.2 mph - 0.11 in Rain Rain
1:40 PM 48.9 °F - 48.0 °F 97% 29.82 in 1.2 mi SE 8.1 mph - 0.20 in Rain Rain
1:53 PM 48.9 °F - 48.0 °F 97% 29.82 in 1.2 mi ESE 12.7 mph - 0.26 in Rain Rain
2:06 PM 51.1 °F - 48.9 °F 92% 29.80 in 1.2 mi SE 28.8 mph 38.0 mph 0.04 in Rain Light Rain
2:32 PM 52.0 °F - 48.9 °F 89% 29.79 in 1.8 mi SSE 31.1 mph 42.6 mph 0.11 in Rain Rain
2:43 PM 51.1 °F - 48.9 °F 92% 29.78 in 1.5 mi SSE 33.4 mph 42.6 mph 0.14 in Rain Rain
2:51 PM 51.8 °F - 48.2 °F 88% 29.78 in 1.8 mi SSE 31.1 mph 42.6 mph 0.16 in Rain Light Rain
2:53 PM 52.0 °F - 48.9 °F 89% 29.79 in 2.0 mi SSE 32.2 mph 39.1 mph 0.17 in Rain Light Rain
3:01 PM 51.1 °F - 48.9 °F 92% 29.78 in 2.0 mi SSE 25.3 mph 39.1 mph 0.01 in Rain Light Rain
3:16 PM 51.1 °F - 48.9 °F 92% 29.77 in 1.8 mi SSE 27.6 mph 36.8 mph 0.04 in Rain Light Rain
3:26 PM 51.1 °F - 48.9 °F 92% 29.76 in 2.0 mi SSE 23.0 mph 35.7 mph 0.05 in Rain Light Rain
3:51 PM 51.8 °F - 48.2 °F 88% 29.75 in 1.5 mi SSE 24.2 mph 34.5 mph 0.08 in Rain Light Rain
3:53 PM 51.1 °F - 48.9 °F 92% 29.76 in 1.2 mi SSE 25.3 mph 34.5 mph 0.08 in Rain Light Rain
4:14 PM 51.1 °F - 48.9 °F 92% 29.74 in 2.5 mi SSE 24.2 mph 35.7 mph 0.05 in Rain Light Rain
4:38 PM 51.1 °F - 50.0 °F 96% 29.73 in 1.8 mi South 24.2 mph 32.2 mph 0.09 in Rain Light Rain
4:53 PM 52.0 °F - 50.0 °F 93% 29.74 in 1.8 mi South 17.3 mph 31.1 mph 0.11 in Rain Light Rain
5:00 PM 52.0 °F - 50.0 °F 93% 29.73 in 2.5 mi South 29.9 mph 43.7 mph 0.01 in Rain Light Rain
5:13 PM 52.0 °F - 50.0 °F 93% 29.73 in 1.2 mi South 29.9 mph 43.7 mph 0.03 in Rain Light Rain
5:53 PM 52.0 °F - 50.0 °F 93% 29.74 in 3.0 mi South 32.2 mph 41.4 mph 0.09 in Rain Light Rain
6:03 PM 52.0 °F - 50.0 °F 93% 29.73 in 2.0 mi South 28.8 mph 39.1 mph 0.00 in Rain Light Rain
6:53 PM 52.0 °F - 50.0 °F 93% 29.75 in 2.5 mi South 27.6 mph 35.7 mph 0.09 in Rain Light Rain
7:41 PM 52.0 °F - 50.0 °F 93% 29.75 in 3.0 mi South 27.6 mph 40.3 mph 0.10 in Rain Light Rain
7:53 PM 52.0 °F - 50.0 °F 93% 29.76 in 3.0 mi South 28.8 mph 36.8 mph 0.13 in Rain Light Rain
8:48 PM 51.8 °F - 50.0 °F 94% 29.77 in 5.0 mi South 17.3 mph - 0.08 in Rain Light Rain
8:53 PM 51.1 °F - 50.0 °F 96% 29.78 in 5.0 mi South 17.3 mph - 0.09 in Rain Light Rain
9:31 PM 51.1 °F - 50.0 °F 96% 29.79 in 2.0 mi South 16.1 mph - 0.03 in Rain Light Rain
9:42 PM 51.1 °F - 50.0 °F 96% 29.80 in 1.8 mi South 15.0 mph - 0.04 in Rain Light Rain
9:53 PM 50.0 °F - 50.0 °F 100% 29.81 in 1.8 mi South 12.7 mph - 0.05 in Rain Light Rain
10:03 PM 50.0 °F - 50.0 °F 100% 29.80 in 2.0 mi South 11.5 mph - 0.01 in Rain Light Rain
10:37 PM 50.0 °F - 50.0 °F 100% 29.83 in 2.5 mi South 10.4 mph - 0.07 in Rain Light Rain
10:44 PM 50.0 °F - 50.0 °F 100% 29.83 in 3.0 mi SSW 11.5 mph - 0.08 in Rain Light Rain
10:53 PM 50.0 °F - 50.0 °F 100% 29.86 in 2.0 mi SW 12.7 mph - 0.10 in Rain Light Rain
11:02 PM 50.0 °F - 48.9 °F 96% 29.85 in 2.0 mi SW 15.0 mph - 0.01 in Rain Light Rain
11:26 PM 50.0 °F - 48.9 °F 96% 29.86 in 2.5 mi SW 13.8 mph - 0.02 in Rain Light Rain
11:53 PM 50.0 °F - 48.9 °F 96% 29.89 in 2.5 mi WSW 10.4 mph - 0.03 in   Overcast